Location: Arnac
(45.0587°N, 2.2334°E)
Time: 08:48:17
(UTC+00:00)

Daily predictions for brighter satellites

Satellite Brightness Start Highest point End
(mag) Time Altitude Azimuth Time Altitude Azimuth Time Altitude Azimuth
SL-08 R/B 4.5 19:47:02 10° S 19:53:07 84° E 19:59:14 10° N
IGS 5A 3.6 19:50:12 10° SSE 19:54:21 84° WSW 19:58:32 10° NNW
Terra 4.0 19:53:51 10° ENE 19:55:12 11° ENE 19:56:32 10° NE
Resurs 01 Rocket 2.0 19:51:47 10° SE 19:55:59 48° ENE 20:00:14 10° N
Cosmos 1666 Rocket 4.1 19:51:59 10° N 19:56:09 41° ENE 20:00:19 10° SSE
Cosmos 1805 Rocket 3.8 19:53:15 10° N 19:57:44 79° W 20:02:09 10° S
PSLV R/B 4.1 19:53:52 10° NNE 19:57:51 52° E 20:01:47 10° S
Meteor 1-14 Rocket 4.4 19:54:36 10° N 20:00:34 74° ENE 20:06:23 10° SSE
Cosmos 1656 3.9 19:56:37 10° S 20:01:56 47° ESE 20:07:12 10° NE
BREEZE M DEB (TANK) 3.5 20:00:12 10° WNW 20:03:13 54° NNE 20:11:48 10° E
Genesis I 3.3 19:59:29 10° SSW 20:03:25 61° ESE 20:07:27 10° NE
Cosmos 1980 Rocket 4.0 20:02:54 10° ESE 20:04:24 11° E 20:05:54 10° E
Cosmos 1666 3.3 20:02:37 10° NNW 20:06:23 57° W 20:10:05 10° S
Cosmos 1570 Rocket 4.2 20:01:59 10° NNW 20:07:09 58° ENE 20:12:19 10° SE
Cosmos 2061 Rocket 4.2 20:01:06 10° SSW 20:07:18 76° W 20:13:32 10° N
Okean-O 4.3 20:03:29 10° SSW 20:07:29 34° W 20:11:32 10° NNW
COBE Rocket 4.3 20:03:25 10° S 20:08:32 70° W 20:13:34 10° NNW
Cosmos 1633 Rocket 3.5 20:04:50 10° N 20:09:04 46° ENE 20:13:16 10° SSE
COSMOS 2487 3.5 20:08:19 10° NW 20:11:15 37° WSW 20:14:09 10° S
Cosmos 1151 Rocket 3.0 20:07:51 10° S 20:12:06 65° E 20:16:21 10° NNE
BREEZE-M DEB (TANK) 3.6 20:10:22 10° WSW 20:13:25 78° NNW 20:22:32 10° ENE
Landsat 7 4.0 20:09:54 10° S 20:14:35 73° WSW 20:19:20 10° NNW
Cosmos 1470 Rocket 4.5 20:11:21 10° N 20:15:15 32° ENE 20:18:43 12° SE
Cosmos 44 3.0 20:13:23 10° NW 20:17:45 89° NE 20:21:44 12° SE
Meteor 1-5 Rocket 4.3 20:13:43 10° NNW 20:19:10 74° W 20:24:27 10° S
Cosmos 1315 Rocket 2.9 20:18:16 10° N 20:22:22 70° ENE 20:26:19 11° SSE
Cosmos 1697 Rocket 3.3 20:19:52 10° SSE 20:24:55 34° ESE 20:29:58 10° NE
Cosmos 1814 Rocket 4.1 20:20:11 10° NNW 20:25:19 77° WSW 20:30:26 10° SSE
USA 215 4.4 20:21:31 10° E 20:25:50 18° ESE 20:30:08 10° SSE
Sich 1 4.0 20:22:27 10° NNW 20:26:41 47° W 20:30:51 10° SSW
Meteor 1-11 Rocket 4.1 20:20:53 10° N 20:26:44 53° ENE 20:31:59 13° SSE
Spot 2 Rocket 4.5 20:22:55 12° SE 20:26:52 32° ENE 20:31:18 10° N
Cosmos 2297 Rocket 2.2 20:23:19 10° NNW 20:29:00 77° ENE 20:33:58 14° SSE
Cosmos 1515 Rocket 4.3 20:26:44 12° SSE 20:30:13 34° E 20:34:11 10° NNE
BREEZE-M DEB (TANK) 2.6 20:30:45 10° W 20:33:53 53° NNW 20:36:01 10° ENE
USA 245 4.5 20:33:02 14° SSE 20:37:46 62° ENE 20:43:55 10° N
ARIANE 5 R/B 4.3 20:36:21 13° ESE 20:39:04 21° ENE 20:42:25 10° NNE
SPOT 1/Viking Rocket 3.7 20:36:04 10° S 20:41:14 77° WSW 20:46:26 10° NNW
ATLAS 2AS CENTAUR R/B 4.0 20:40:06 14° SSE 20:44:37 23° ESE 20:50:18 10° ENE
CARTOSAT-1 3.5 20:42:03 16° SSE 20:45:27 73° ENE 20:49:46 10° N
NOSS 3-4 (A) 3.3 20:43:06 10° SSW 20:48:40 60° ESE 20:54:39 10° NE
NOSS 3-4 (C) 3.3 20:43:10 10° SSW 20:48:46 60° ESE 20:54:44 10° NE
Aureole 1 Rocket 2.9 20:53:00 23° SSE 20:54:31 37° ESE 20:57:24 10° NE
Cosmos 2219 3.2 20:54:26 10° NNW 21:00:07 82° ENE 21:03:55 22° SSE
Cosmos 2208 Rocket 4.4 20:54:48 10° NNW 21:00:12 65° WSW 21:04:26 16° S
MetOp-B 4.4 20:56:18 13° S 21:01:03 68° WSW 21:06:25 10° NNW
Cosmos 921 Rocket 4.1 20:57:01 10° N 21:01:10 34° ENE 21:03:26 21° ESE
CZ-4B R/B 3.7 21:00:21 10° NNW 21:03:02 24° WNW 21:05:41 10° SW
H-2A R/B 4.4 21:01:29 10° NNW 21:04:44 23° WNW 21:07:58 10° WSW
SPOT 5 3.1 21:03:10 22° SSE 21:06:41 69° ENE 21:11:54 10° N
Cosmos 1536 2.8 21:04:21 10° N 21:08:23 86° W 21:10:43 24° S
Cosmos 389 Rocket 2.4 21:05:11 10° N 21:08:40 67° ENE 21:10:03 33° SSE
Cosmos 2034 Rocket 4.2 21:05:04 18° SSE 21:09:39 57° E 21:15:50 10° NNE
Cosmos 1184 Rocket 2.6 21:09:25 40° SSE 21:10:14 58° E 21:13:14 10° NNE
Cosmos 2082 4.1 21:04:57 10° NNW 21:10:29 53° ENE 21:13:46 24° SE
Helios 1A Rocket 2.8 21:08:57 25° SSE 21:11:13 86° WSW 21:15:15 10° NNW
NOSS 3-2 (C) 4.5 21:04:27 10° NW 21:11:59 60° WSW 21:18:24 19° SSE
OAO 3 Rocket 4.3 21:08:44 10° SW 21:12:44 25° S 21:13:12 24° SSE
Okean 1 3.7 21:14:48 32° SE 21:16:07 43° E 21:19:56 10° NNE
Cosmos 968 Rocket 4.5 21:11:13 10° SW 21:16:12 47° WNW 21:21:10 10° N
Cosmos 1515 3.9 21:13:27 16° SSW 21:16:22 69° W 21:20:09 10° N
Cosmos 2292 Rocket 4.4 21:14:17 10° NNE 21:16:44 20° ENE 21:16:59 20° ENE
ERS-1 Rocket 3.0 21:13:55 25° SSE 21:16:50 74° ENE 21:21:52 10° N
Cosmos 405 4.0 21:13:58 10° NNW 21:17:11 40° W 21:19:10 20° SSW
Geosat 4.5 21:17:27 24° ESE 21:20:13 49° NE 21:25:05 10° NNW
Meteor 1-19 Rocket 4.3 21:17:59 25° SSE 21:21:00 53° E 21:26:15 10° NNE
ATLAS 3B R/B 4.3 21:15:25 10° NNW 21:21:40 30° NNE 21:28:08 10° E
Cosmos 1743 2.9 21:20:04 10° NNW 21:23:49 64° W 21:25:38 28° SSW
ISS -1.6 21:21:45 10° NW 21:24:39 26° N 21:27:32 10° ENE
Cosmos 2263 Rocket 3.1 21:21:07 10° NNW 21:26:18 37° NE 21:29:18 22° ESE
Cosmos 2344 3.4 21:20:38 10° SSW 21:28:09 72° ESE 21:35:43 10° NE
Cosmos 1933 Rocket 3.8 21:27:28 10° NNW 21:31:55 66° W 21:34:14 27° S
Terra 1.8 21:29:55 32° SSE 21:32:08 80° ENE 21:36:55 10° N
SL-4 R/B 2.1 21:27:39 10° WNW 21:32:11 80° NNE 21:33:59 34° ESE
Resurs 01 Rocket 4.0 21:29:45 10° SW 21:32:45 18° W 21:35:45 10° NW
SPOT 3 Rocket 4.5 21:30:26 16° SSW 21:34:12 42° W 21:39:06 10° NNW
Cosmos 2227 Rocket 2.8 21:29:47 10° NW 21:35:14 48° WSW 21:38:32 23° S
CENTAUR R/B 4.4 21:28:26 10° NW 21:35:43 33° WSW 21:42:39 13° SSW
Cosmos 1975 3.7 21:32:38 10° N 21:36:24 35° ENE 21:37:13 31° ESE
Meteor 2-4 Rocket 4.3 21:37:43 31° SE 21:39:51 42° E 21:45:12 10° NNE
Cosmos 1340 3.7 21:38:01 17° SW 21:40:37 43° WNW 21:44:14 10° N
Cosmos 1733 Rocket 4.3 21:38:54 10° NNE 21:42:45 28° ENE 21:43:44 25° E
Cosmos 2369 3.6 21:40:08 15° SSW 21:44:56 86° ESE 21:50:38 10° NNE
Meteor 2-21 4.4 21:39:24 10° N 21:45:31 88° W 21:48:44 30° S
Cosmos 1980 Rocket 2.1 21:43:23 20° SSW 21:47:23 79° ESE 21:53:04 10° NNE
Cosmos 783 Rocket 4.5 21:44:30 10° NNW 21:49:43 72° ENE 21:51:38 39° SE
Cosmos 2322 Rocket 3.8 21:53:11 17° E 21:53:11 17° E 21:56:26 10° ENE
CZ-2C R/B 4.2 21:48:29 10° N 21:53:11 61° WNW 21:56:25 20° SSW
Cosmos 1354 Rocket 3.9 21:51:12 25° SSW 21:54:18 88° ESE 21:59:38 10° NNE
Meteor 2-21 Rocket 4.4 21:51:08 10° N 21:57:15 86° E 22:00:00 35° S
SJ 16-02 1.2 21:56:08 45° S 21:57:24 79° ESE 22:01:48 10° NNE
Cosmos 2228 Rocket 3.1 21:55:45 39° S 21:57:26 88° W 22:02:02 10° N
Meteor 1-18 Rocket 4.2 21:56:11 34° S 21:58:45 75° E 22:04:25 10° NNE
Cosmos 1428 Rocket 4.5 21:55:22 10° N 22:01:42 84° E 22:04:31 36° SSE
Cosmos 1777 Rocket 3.9 22:01:35 41° S 22:03:18 67° ESE 22:08:31 10° NNE
USA 81 4.0 22:03:54 43° SSE 22:05:35 69° E 22:10:51 10° N
SAR-Lupe-4 3.5 22:03:09 10° NNE 22:06:46 83° WNW 22:07:07 70° SW
Cosmos 1697 Rocket 4.0 22:03:29 10° SW 22:08:47 40° NW 22:14:07 10° NNE
USA 215 3.1 22:03:04 10° NE 22:09:37 69° SE 22:16:08 10° SW
Cosmos 2297 Rocket 4.4 22:08:57 10° WNW 22:12:19 16° W 22:15:41 10° SW
Cosmos 1092 Rocket 4.0 22:06:33 10° N 22:12:46 77° W 22:15:26 36° S
EXPRESS MD2 4.0 22:09:01 10° WNW 22:12:19 34° WSW 22:12:19 34° WSW
Meteor 2-16 Rocket 4.4 22:06:56 10° N 22:13:08 86° W 22:15:38 39° S
ARIANE 5 R/B 3.4 22:13:52 35° SW 22:15:12 45° W 22:19:32 10° NNW
Cosmos 773 Rocket 4.0 22:10:14 10° NNW 22:15:27 71° WSW 22:16:57 46° S
Timation 2 Rocket 4.3 22:09:17 10° NNW 22:15:46 65° WSW 22:18:32 36° S
Meteor 1-4 Rocket 4.1 22:13:51 10° NNE 22:16:23 23° ENE 22:16:23 23° ENE
Cosmos 1634 Rocket 3.9 22:14:35 35° S 22:17:24 88° E 22:23:39 10° N
Cosmos 1726 4.5 22:17:42 10° NE 22:19:35 13° ENE 22:19:37 13° ENE
Cosmos 1869 Rocket 4.5 22:16:39 10° NNW 22:20:54 42° W 22:22:12 33° SW
SL-16 R/B 2.5 22:27:38 43° SE 22:28:18 45° ESE 22:33:41 10° NE
Iridium 4 Rocket 4.3 22:26:19 10° NNE 22:30:15 31° E 22:30:35 30° E
Cosmos 1733 4.0 22:30:02 10° N 22:33:22 40° ENE 22:33:22 40° ENE
ATLAS CENTAUR R/B 4.3 22:31:25 10° N 22:34:18 15° NNE 22:37:10 10° ENE
Cosmos 44 Rocket 3.4 22:30:01 10° NNW 22:34:42 63° NE 22:35:38 51° ESE
Cosmos 1378 4.0 22:34:17 38° W 22:34:45 40° WNW 22:38:14 10° N
ATLAS 2AS CENTAUR R/B 2.9 22:27:21 12° SW 22:34:49 87° NW 22:42:26 10° NE
Cosmos 1346 Rocket 2.8 22:35:44 73° WSW 22:35:56 75° W 22:39:58 10° N
RESURS DK-1 2.6 22:36:47 55° WSW 22:37:27 67° WNW 22:41:35 10° NNE
Cosmos 1538 Rocket 3.9 22:33:56 10° NNW 22:39:13 79° ENE 22:40:18 57° SE
ADEOS Rocket 4.0 22:40:53 25° E 22:42:59 32° ENE 22:48:04 10° N
Cosmos 2026 Rocket 4.5 22:38:47 10° NNW 22:44:41 51° W 22:47:06 33° SW
USA 267 3.4 22:40:37 24° ESE 22:44:47 70° NNE 22:51:18 10° NW
Cosmos 2278 4.1 22:42:30 25° SW 22:45:45 61° WNW 22:51:24 10° NNE
Cosmos 1707 Rocket 4.2 22:46:00 40° WSW 22:47:01 49° WNW 22:51:20 10° N
Okean 1-7 3.6 22:54:08 44° E 22:54:08 44° E 22:58:05 10° NNE
Cosmos 482 Debris 4.5 22:50:14 10° WNW 22:53:55 89° SSW 22:54:21 74° SE
SL-24 R/B - RUBIN 2 3.4 22:50:35 10° NW 22:54:58 84° NE 22:55:13 79° ESE
Cosmos 1703 Rocket 4.0 23:00:20 48° E 23:00:20 48° E 23:04:26 10° NNE
Cosmos 2360 Rocket 2.8 23:00:23 38° ESE 23:00:30 38° ESE 23:05:41 10° NE
ISS -2.4 22:58:34 10° NW 23:00:55 39° NNW 23:00:55 39° NNW
Cosmos 158 Rocket 4.4 22:58:41 10° NNW 23:03:33 46° WSW 23:04:12 43° SW
Cosmos 2242 Rocket 4.2 23:09:15 46° E 23:09:15 46° E 23:13:31 10° NNE
Cosmos 1441 Rocket 3.7 23:09:48 54° NW 23:09:48 54° NW 23:13:07 10° N
Cosmos 2263 Rocket 3.0 23:05:07 10° NW 23:10:10 36° WSW 23:10:59 34° SW
Terra 4.2 23:08:48 10° WSW 23:10:28 12° W 23:12:19 10° WNW
SL-4 R/B 4.2 23:07:55 10° W 23:09:26 17° W 23:09:26 17° W
Spot 4 3.8 23:11:37 64° SW 23:12:01 68° WSW 23:16:50 10° NNW
ATLAS 3B R/B 2.8 23:05:56 10° NW 23:13:21 89° NE 23:16:23 41° SE
Cosmos 1937 Rocket 4.2 23:13:32 38° ESE 23:13:32 38° ESE 23:18:20 10° NE
Cosmos 1066 Rocket 4.3 23:12:31 51° SSW 23:14:00 75° W 23:19:46 10° N
NOSS 2-1 (E) 4.4 23:15:19 33° NNE 23:15:19 33° NNE 23:17:16 10° NE
ALOS 2 2.5 23:15:18 83° E 23:15:20 83° ENE 23:19:45 10° NNW
Cosmos 1782 Rocket 4.1 23:11:22 10° N 23:15:36 48° ENE 23:15:37 48° ENE
Meteor 1-23 Rocket 4.4 23:16:52 53° SE 23:17:49 61° E 23:23:34 10° NNE
Cosmos 2266 Rocket 3.9 23:12:45 10° N 23:19:06 90° SW 23:20:37 55° S
Cosmos 1733 Rocket 4.4 23:16:39 10° NNW 23:20:29 29° W 23:20:49 29° W
Cosmos 1680 Rocket 3.8 23:16:06 10° NNW 23:21:23 62° ENE 23:22:23 51° ESE
Okean 3 3.6 23:26:58 69° NE 23:26:58 69° NE 23:30:50 10° NNE
Cosmos 2333 Rocket 3.0 23:26:56 35° ESE 23:27:05 35° ESE 23:32:10 10° NE
Cosmos 1908 Rocket 3.6 23:22:57 10° NNW 23:27:06 67° WNW 23:27:06 67° WNW
Cosmos 1805 4.4 23:27:34 10° NNW 23:30:41 36° WNW 23:30:41 36° WNW
Cosmos 1980 Rocket 4.4 23:27:55 10° W 23:32:04 20° NW 23:36:14 10° N
ERS-2 2.8 23:29:47 10° N 23:32:44 52° NNW 23:32:44 52° NNW
Cosmos 1898 Rocket 3.4 23:35:22 70° S 23:35:57 82° ESE 23:41:19 10° NNE
Cosmos 2322 Rocket 2.2 23:34:58 52° SW 23:36:19 74° WNW 23:41:57 10° NNE
SJ 16-02 4.1 23:34:31 10° W 23:36:33 13° NW 23:38:36 10° NNW
Meteor 2-10 4.2 23:31:34 10° NNW 23:36:48 58° W 23:37:21 55° WSW
H-2A R/B 4.1 23:34:01 10° N 23:37:56 46° WNW 23:38:02 46° WNW
Cosmos 990 Rocket 4.2 23:37:50 53° WSW 23:38:53 66° WNW 23:44:07 10° NNE
Cosmos 1766 3.8 23:35:06 10° NNW 23:38:21 53° NW 23:38:21 53° NW
Cosmos 1300 Rocket 4.1 23:35:56 10° N 23:40:07 46° ENE 23:40:11 46° E
Meteor 1-15 Rocket 4.2 23:39:32 10° NNW 23:45:08 69° W 23:46:02 59° SSW
Gblst 52 Del rocket 4.2 23:49:00 60° SSW 23:49:54 69° SE 23:55:33 10° ENE
Cosmos 1844 Rocket 2.5 23:46:42 10° NNW 23:52:18 77° WSW 23:53:01 66° S
USA 215 4.1 23:46:13 10° NE 23:52:27 48° NNW 23:58:42 10° W
Cosmos 1726 3.4 23:51:20 10° NNW 23:53:54 35° NW 23:53:54 35° NW
Cosmos 1674 4.2 23:56:22 27° ENE 23:56:22 27° ENE 23:58:57 10° NNE
